Vertical_Velocity
-4 -1 3 3 2 -4 9 -6 21 -25 5 -10 -2 3 3 5 -1 -4 -6 -2 1 -4 -9 -6 0 -1 -0 1 -1 5 6 2 -6 -3 4 -1 1 0 -1 -0 -1 -1 -1 -0
-7 -4 3 2 -2 1 -0 -5 0 3 -13 4 -7 -4 -4 -4 -3 -3 -5 -1 0 -11 -8 -4 -2 4 6 -3 7 2 11 1 4 6 -5 2 1 -2 0 -0 -1 -1 -1 1
-6 1 -2 -2 -11 -1 -3 -0 11 6 -10 -1 -8 -1 2 -2 2 1 3 3 -4 -1 -7 9 -4 4 -2 6 13 -2 4 -4 3 -3 -0 0 -2 -0 -1 0 -3 -1 0 3
-1 3 5 -18 -2 8 8 -1 -2 -3 -3 4 5 -1 1 -4 9 1 -9 1 -6 -5 -3 -2 -3 1 15 -8 1 -2 -1 1 -1 4 1 -0 1 -0 -1 -1 -1 1 -1 -1
3 1 -14 -12 -7 8 13 -18 0 3 -2 -0 -9 -5 -25 15 -7 -4 -2 -1 -5 -3 11 -5 -3 5 6 -2 -10 1 1 -1 3 -0 0 -1 -0 -1 -2 -2 -0 -1 -0 0
2 7 3 -2 -7 -2 4 -8 1 3 -1 2 -1 3 -7 -5 0 -6 -6 2 -1 4 -4 -4 -5 -5 -5 0 4 -0 -1 -0 -2 -0 -0 -0 -2 -2 -2 3 0 -0 -7 -0
-1 0 -10 -7 -0 -3 9 -6 -0 7 5 -0 7 21 2 -4 -8 -1 2 -0 -2 -2 0 -2 -3 4 -3 -4 4 5 -6 -0 -0 -1 2 -2 -5 1 -0 2 -6 -3 -2 -0
2 5 -7 1 -2 4 -9 -14 5 3 0 -4 -1 -8 3 -6 -13 -3 -4 4 -6 -3 5 3 0 6 -2 9 4 -4 -2 -1 -1 -1 -2 -3 -1 -1 -0 -3 6 -3 -3 -6
6 -9 -5 -6 11 -7 -0 17 -3 -2 7 1 -3 5 3 -7 -1 -4 7 -7 -3 1 -2 1 4 -2 0 -2 -1 -2 -1 -1 -2 -1 -2 1 -1 -1 -4 2 -2 -2 -1 -4
29 -19 -8 0 -19 2 19 0 4 -6 7 9 1 3 -5 6 -5 11 -5 -4 3 2 2 3 -2 -3 -0 -2 -2 -0 -2 -3 -2 -1 -3 1 -1 -1 1 -1 -3 4 -5 -0
-12 -11 -7 -15 5 12 -17 -1 12 -8 1 2 2 -5 0 -5 6 -3 -2 2 -0 -1 1 0 -1 -0 -1 0 -3 -1 -1 -2 -1 -1 -0 -1 -1 -0 -3 2 9 -4 -1 2
-10 -14 16 -11 7 2 8 -4 2 5 -10 -4 12 5 6 -0 -4 -2 -1 -2 -2 2 -3 1 1 1 -0 -2 -1 -0 -1 -1 -1 -1 -1 -2 -2 -4 2 -0 2 -0 2 7
-19 2 7 6 0 7 9 -5 3 -3 2 -1 -2 -2 -6 -3 -3 -2 -3 2 4 1 2 -0 0 -0 0 -2 -0 -1 -1 -1 0 0 -2 -1 -2 -1 -4 -6 -3 2 3 1
-11 13 -1 -4 -0 -3 3 2 3 3 7 2 -3 -4 -1 -2 4 3 8 1 -1 0 1 -0 -1 -1 -2 -2 -4 -0 -0 -1 -0 -1 -2 -1 -4 -1 1 0 -4 -8 2 0
5 8 15 5 -7 -2 1 -2 -4 3 3 -1 -3 0 1 4 1 4 -2 -1 -0 -1 -0 -1 -2 1 -1 -2 0 1 -0 0 -1 -2 -1 -3 0 0 1 -0 -2 1 -4 1
-5 -6 -6 1 -1 0 1 -4 -1 -4 -2 -0 2 1 -0 2 -1 1 -2 0 -0 -0 -1 -1 -1 -2 -1 -1 -0 1 6 -1 -3 -2 -1 1 -2 -0 -1 -1 -1 3 1 -3
-0 -6 -5 -6 1 -3 -3 -0 0 -1 1 2 -1 -4 -3 0 0 1 1 0 -1 -0 -1 -1 -1 0 0 1 1 0 2 -1 -3 1 -0 -1 -2 0 0 0 -1 3 1 1
1 2 1 4 2 -1 -2 -1 -5 -3 -0 1 1 1 2 1 0 -0 0 -0 -1 -1 -1 -1 -2 -1 1 1 1 0 -1 -1 0 -1 -1 1 -4 -0 1 1 1 1 0 1
-2 -3 -4 -4 -2 -1 -3 -2 -3 -1 -0 0 0 0 -1 -1 0 -0 -0 -0 -1 -4 1 -0 0 1 -2 -2 1 -1 -2 -1 -1 1 -2 -0 2 -0 1 -1 1 2 2 0
-9 -6 -10 -3 4 -0 -0 2 2 1 1 -0 -0 0 -1 -1 0 -0 -0 -0 2 1 1 1 0 -1 -2 -2 0 1 -1 0 -1 0 2 -4 -1 2 -1 1 -0 3 1 1
-3 -4 -1 -1 -3 4 2 -0 1 2 -1 -0 -0 -0 -0 -0 -0 -1 -1 -1 2 -1 1 2 1 2 -4 -1 -1 -2 0 -0 -0 -1 -1 -1 -0 -1 0 1 0 0 1 2
3 3 -2 1 1 3 -3 2 3 -2 -1 -1 -0 1 0 -1 -0 0 1 0 1 0 0 2 2 2 2 2 0 -0 0 -0 -1 -1 1 -0 -1 0 1 -1 1 -0 2 1
-4 1 1 -2 3 1 -5 4 -4 0 -1 -0 -0 -1 -1 -0 -1 -3 -3 -1 0 0 -0 -1 1 2 3 2 1 -0 0 -0 -1 -1 -0 -1 -2 -1 -1 -2 1 2 -0 -2
-4 3 0 2 4 5 -2 1 -0 -0 -0 -0 -1 -0 0 -1 -1 -3 -1 -1 -1 -1 -1 -1 -1 0 1 0 1 0 0 1 -1 -1 0 -1 -1 -2 -0 -1 0 1 0 -0
-1 -1 4 5 8 -5 5 -2 1 0 -0 -2 -0 0 -2 -2 -1 -1 -1 -1 -0 -1 -1 -1 0 0 -0 0 1 0 0 0 -1 -1 -1 0 -1 -1 -0 -1 -1 -0 -1 -0
-1 -0 1 3 0 0 3 -1 2 -1 -0 -1 -1 -3 -2 -3 0 -1 -1 -1 -2 -2 -0 0 -0 -0 0 1 1 -0 0 -0 -0 0 -0 -2 -1 -1 -1 -1 -1 -0 -0 -1
-1 2 3 4 -5 -2 2 0 1 -0 -2 -0 -1 -1 -3 -1 -2 -2 -2 -2 -0 -1 -1 -1 -0 0 1 1 0 0 -0 -1 -0 -1 -1 -1 -2 -1 -1 -1 -1 -1 -0 0
Height
1546 1541 1538 1532 1526 1514 1516 1509 1512 1478 1486 1472 1473 1470 1469 1470 1469 1469 1468 1466 1462 1460 1458 1453 1446 1443 1440 1440 1440 1440 1440 1439 1439 1438 1439 1438 1437 1435 1433 1429 1424 1420 1415 1412
1556 1546 1538 1531 1523 1511 1509 1501 1492 1483 1472 1475 1471 1471 1470 1473 1471 1468 1464 1460 1458 1455 1450 1446 1442 1438 1437 1437 1437 1438 1436 1434 1435 1435 1435 1434 1432 1429 1425 1421 1417 1413 1408 1403
1551 1541 1544 1542 1517 1506 1499 1492 1487 1482 1473 1471 1471 1472 1474 1471 1469 1464 1461 1458 1455 1450 1445 1441 1438 1435 1434 1435 1434 1431 1431 1431 1431 1431 1431 1429 1426 1423 1418 1414 1409 1405 1400 1395
1553 1547 1536 1500 1492 1490 1489 1486 1482 1478 1473 1474 1475 1474 1474 1473 1468 1463 1462 1456 1449 1443 1439 1437 1434 1432 1431 1429 1429 1428 1428 1429 1429 1428 1426 1424 1420 1416 1411 1406 1401 1396 1391 1387
1546 1532 1512 1507 1486 1489 1489 1486 1481 1477 1479 1476 1476 1469 1469 1467 1465 1459 1455 1450 1445 1439 1433 1430 1428 1428 1425 1424 1425 1425 1425 1425 1425 1424 1421 1418 1414 1409 1404 1399 1394 1389 1384 1378
1544 1535 1519 1493 1489 1489 1487 1481 1480 1481 1478 1479 1475 1468 1461 1461 1457 1452 1448 1443 1437 1432 1427 1423 1422 1421 1422 1423 1423 1422 1423 1422 1420 1418 1415 1411 1407 1402 1398 1393 1386 1381 1375 1370
1540 1533 1506 1489 1485 1487 1492 1482 1479 1479 1475 1472 1468 1466 1458 1454 1450 1447 1441 1436 1431 1427 1422 1421 1420 1421 1421 1421 1420 1420 1419 1418 1416 1413 1410 1406 1401 1397 1392 1386 1379 1374 1368 1362
1532 1523 1504 1483 1484 1496 1485 1476 1475 1471 1470 1466 1463 1457 1453 1447 1443 1438 1434 1431 1426 1420 1421 1420 1420 1420 1419 1418 1417 1416 1416 1415 1412 1409 1405 1400 1396 1391 1385 1380 1375 1368 1362 1355
1512 1492 1483 1480 1481 1481 1479 1471 1469 1470 1462 1460 1455 1450 1446 1440 1437 1433 1428 1424 1421 1421 1420 1420 1419 1418 1418 1417 1415 1414 1412 1411 1408 1405 1400 1396 1391 1385 1380 1377 1370 1364 1358 1351
1503 1491 1484 1482 1481 1479 1475 1472 1465 1463 1458 1453 1448 1443 1439 1435 1432 1428 1423 1421 1420 1419 1419 1419 1417 1417 1417 1414 1413 1411 1409 1406 1403 1400 1395 1391 1386 1382 1378 1373 1367 1361 1354 1348
1489 1485 1483 1481 1477 1473 1469 1466 1460 1456 1452 1447 1442 1438 1435 1431 1428 1424 1421 1420 1420 1420 1418 1417 1416 1416 1414 1412 1410 1408 1406 1402 1399 1395 1391 1386 1383 1379 1375 1370 1365 1358 1352 1346
1485 1485 1481 1470 1468 1467 1462 1459 1455 1451 1445 1442 1438 1433 1431 1428 1424 1421 1420 1420 1420 1419 1418 1416 1415 1414 1412 1410 1407 1405 1402 1399 1395 1390 1386 1384 1380 1375 1372 1366 1361 1356 1350 1345
1480 1477 1472 1466 1462 1460 1457 1454 1450 1447 1442 1436 1432 1431 1428 1424 1421 1420 1420 1419 1418 1417 1416 1415 1413 1412 1410 1407 1404 1401 1397 1394 1391 1388 1385 1382 1378 1373 1366 1362 1358 1353 1348 1342
1472 1468 1462 1461 1456 1455 1453 1450 1446 1441 1436 1430 1427 1426 1424 1423 1422 1421 1420 1419 1417 1416 1415 1413 1412 1410 1407 1403 1400 1397 1394 1391 1389 1386 1383 1380 1375 1371 1367 1362 1355 1351 1346 1340
1462 1461 1458 1454 1453 1451 1448 1444 1439 1435 1432 1429 1426 1424 1423 1423 1422 1420 1418 1417 1415 1414 1413 1411 1409 1407 1404 1401 1398 1395 1392 1390 1387 1383 1381 1377 1374 1371 1367 1362 1357 1352 1346 1340
1460 1458 1456 1453 1450 1447 1444 1440 1437 1434 1430 1428 1426 1424 1424 1424 1422 1420 1417 1416 1414 1413 1411 1409 1407 1404 1401 1398 1396 1394 1393 1388 1385 1382 1380 1377 1373 1370 1366 1362 1358 1353 1348 1342
1458 1455 1454 1452 1449 1444 1444 1443 1439 1435 1431 1429 1426 1424 1423 1421 1419 1418 1416 1414 1412 1411 1409 1407 1405 1403 1399 1396 1394 1392 1390 1388 1384 1382 1379 1376 1373 1369 1366 1362 1359 1355 1351 1346
1457 1456 1454 1453 1448 1444 1441 1440 1437 1435 1432 1429 1426 1424 1422 1420 1418 1416 1414 1412 1411 1409 1407 1405 1403 1400 1396 1394 1392 1389 1387 1385 1383 1381 1378 1375 1372 1369 1366 1362 1360 1356 1352 1348
1454 1453 1452 1449 1445 1441 1437 1436 1434 1432 1430 1428 1425 1422 1420 1419 1416 1414 1413 1410 1409 1407 1405 1403 1400 1397 1394 1391 1389 1388 1385 1383 1381 1380 1377 1374 1372 1369 1366 1363 1360 1357 1354 1350
1451 1450 1447 1443 1439 1436 1434 1433 1431 1430 1428 1426 1423 1420 1418 1416 1414 1412 1411 1409 1407 1406 1403 1401 1398 1395 1392 1389 1388 1386 1384 1382 1380 1378 1376 1373 1371 1368 1366 1363 1361 1358 1355 1352
1445 1442 1439 1435 1432 1431 1430 1429 1428 1427 1426 1423 1420 1418 1416 1414 1412 1410 1409 1407 1405 1402 1400 1398 1395 1393 1390 1388 1386 1384 1382 1380 1379 1377 1375 1373 1371 1368 1366 1364 1362 1359 1356 1354
1438 1435 1431 1429 1427 1426 1425 1425 1424 1423 1422 1420 1418 1416 1414 1412 1410 1408 1406 1404 1401 1399 1397 1394 1392 1390 1389 1387 1385 1383 1381 1378 1377 1376 1374 1373 1371 1369 1367 1364 1363 1360 1358 1355
1430 1428 1425 1423 1420 1418 1418 1420 1420 1419 1419 1417 1416 1414 1412 1410 1408 1405 1404 1402 1398 1396 1393 1391 1389 1388 1386 1385 1383 1381 1379 1377 1376 1374 1373 1372 1370 1369 1367 1364 1363 1361 1359 1357
1423 1420 1418 1415 1413 1412 1414 1415 1416 1416 1415 1414 1413 1412 1410 1408 1406 1404 1402 1399 1397 1394 1391 1389 1387 1385 1383 1382 1381 1379 1377 1376 1374 1373 1372 1370 1369 1368 1367 1365 1364 1362 1360 1358
1416 1413 1410 1408 1407 1409 1411 1412 1413 1413 1412 1412 1411 1409 1408 1406 1404 1402 1400 1397 1395 1392 1390 1388 1385 1383 1382 1381 1379 1377 1376 1374 1373 1372 1371 1370 1369 1368 1367 1365 1364 1362 1360 1359
1408 1405 1403 1402 1404 1408 1409 1408 1409 1409 1409 1409 1408 1406 1405 1403 1401 1399 1397 1395 1393 1391 1388 1386 1384 1382 1380 1379 1378 1376 1374 1373 1372 1371 1370 1369 1368 1367 1366 1365 1363 1362 1361 1360
1401 1399 1399 1400 1402 1404 1405 1405 1406 1406 1406 1406 1405 1404 1402 1400 1398 1396 1394 1392 1390 1388 1386 1384 1382 1380 1378 1377 1375 1374 1373 1371 1370 1369 1368 1368 1367 1367 1366 1365 1364 1363 1362 1362